Huvudsida
METAR-TAF:

METAR-TAF

Flygplatser :

Sankt Michels flygplats

Sankt Michel, Finland

latitud: 61-44N, longitud: 027-18E, höjd: 138 m

Aktuellt väderrapport

Denna rapport gjordes för 13 minuter sedan, klockan 06:20 UTC
Vind 3 kt varierande vindriktning
Temperatur 17°C
Fuktighet 42%
Tryck 1005 hPa
Sikt 10 km eller mer
Inga moln under 1 500 m eller inga cumulonimbus

METAR: EFMI 210620Z AUTO VRB03KT CAVOK 17/04 Q1005

Tid: 09:33 (06:33 UTC)


TAF: saknas

Aktuella väderrapporter och prognoser från 4000 flygplatser (METAR- och TAF-rapporter).

De tillgängliga stationerna syns som gula och röda prickar på kartan.

För musen över prickarna för att se namnen på stationerna.

Klicka sedan för att få väderrapporter och prognoser.

För att ändra kartan: Klicka på de gröna knapparna med ett svart kors på för att zooma in; den gröna knappen med ett streck på för att zooma ut; eller på de gröna pilarna för angränsande kartor.


METAR-TAF: